EW9290 Weather Reports


Display with metric or nautical units.
time (UTC)temp
F
wind
direction
speed
MPH
gust
MPH
rain 1hr
in
rain 24hr
in
rain mn
in
humidity
%
barometer
mb
20260509160259 60 259 4.0 5.0 0.00 0.20 0.20 74 1004.3
20260509155754 61 243 2.0 3.0 0.00 0.20 0.20 73 1004.5
20260509155251 61 239 3.0 3.0 0.00 0.20 0.20 71 1004.3
20260509154747 61 210 3.0 3.0 0.00 0.20 0.20 71 1004.4
20260509154244 60 222 2.0 2.0 0.00 0.20 0.20 74 1004.7
20260509153741 61 259 4.0 5.0 0.00 0.20 0.20 73 1004.4
20260509153237 60 273 2.0 2.0 0.00 0.20 0.20 76 1004.6
20260509152734 58 250 3.0 3.0 0.00 0.20 0.20 78 1004.5
20260509152230 59 233 3.0 3.0 0.00 0.20 0.20 80 1004.3
20260509151727 60 226 3.0 3.0 0.00 0.20 0.20 81 1004.4
20260509151224 59 236 2.0 2.0 0.00 0.20 0.20 82 1004.4
20260509150722 59 258 5.0 7.0 0.00 0.20 0.20 83 1004.5
20260509150220 60 282 3.0 3.0 0.00 0.20 0.20 82 1004.3
20260509145717 59 237 7.0 9.0 0.00 0.20 0.20 82 1004.4
20260509145211 58 237 5.0 6.0 0.00 0.20 0.20 84 1004.3
20260509144708 59 239 3.0 5.0 0.00 0.20 0.20 85 1004.2
20260509144205 57 262 1.0 2.0 0.00 0.20 0.20 88 1004.4
20260509143702 57 196 1.0 2.0 0.00 0.20 0.20 90 1004.4
20260509143200 56 207 1.0 1.0 0.00 0.20 0.20 90 1004.3
20260509142655 57 253 2.0 2.0 0.00 0.20 0.20 89 1004.5
20260509142152 56 288 4.0 6.0 0.00 0.20 0.20 90 1004.3
20260509141648 56 243 5.0 6.0 0.00 0.20 0.20 90 1004.5
20260509141144 56 228 2.0 2.0 0.00 0.20 0.20 91 1004.1
20260509140641 55 216 1.0 1.0 0.00 0.20 0.20 93 1004.5
20260509140139 55 219 3.0 3.0 0.00 0.20 0.20 93 1004.6
20260509135636 55 220 1.0 2.0 0.00 0.20 0.20 94 1004.7
20260509135134 55 241 4.0 5.0 0.00 0.20 0.20 94 1004.4
20260509134630 55 224 2.0 2.0 0.00 0.20 0.20 94 1004.6
20260509134128 55 216 2.0 2.0 0.00 0.20 0.20 95 1004.4
20260509133625 54 236 3.0 3.0 0.00 0.20 0.20 95 1004.7
20260509133122 54 229 3.0 3.0 0.00 0.20 0.20 95 1004.6
20260509132620 54 219 3.0 3.0 0.00 0.20 0.20 95 1004.6
20260509132119 54 234 1.0 2.0 0.00 0.20 0.20 96 1004.8
20260509131614 54 231 2.0 2.0 0.00 0.20 0.20 96 1004.6
20260509131112 54 196 2.0 2.0 0.00 0.20 0.20 97 1004.5
20260509130607 53 200 2.0 2.0 0.00 0.20 0.20 98 1004.5
20260509130104 53 187 1.0 1.0 0.00 0.20 0.20 98 1004.6
20260509125600 53 208 1.0 2.0 0.00 0.20 0.20 98 1004.6
20260509125057 53 192 1.0 2.0 0.00 0.20 0.20 99 1004.5
20260509124553 53 193 2.0 3.0 0.00 0.20 0.20 99 1004.5
20260509124051 53 207 2.0 2.0 0.00 0.20 0.20 99 1004.8
20260509123549 52 210 4.0 5.0 0.00 0.20 0.20 99 1004.9
20260509123045 52 192 2.0 3.0 0.00 0.20 0.20 99 1004.7
20260509122541 52 184 2.0 2.0 0.00 0.20 0.20 99 1004.9
20260509122038 52 237 3.0 3.0 0.00 0.20 0.20 99 1005.0
20260509121535 52 206 2.0 2.0 0.00 0.20 0.20 99 1005.0
20260509121033 52 226 4.0 6.0 0.00 0.20 0.20 99 1005.0
20260509120531 52 195 3.0 3.0 0.00 0.20 0.20 99 1004.9
20260509120029 52 213 2.0 2.0 0.00 0.20 0.20 99 1004.9
20260509115525 52 208 2.0 2.0 0.00 0.20 0.20 99 1004.9
20260509115023 51 197 2.0 2.0 0.00 0.20 0.20 99 1005.0
20260509114521 51 178 2.0 2.0 0.00 0.20 0.20 99 1005.1
20260509114020 51 204 2.0 2.0 0.00 0.20 0.20 99 1005.0
20260509113518 51 195 1.0 1.0 0.00 0.20 0.20 99 1004.8
20260509113015 51 206 1.0 2.0 0.00 0.20 0.20 99 1004.8
20260509112511 51 202 1.0 2.0 0.00 0.20 0.20 99 1004.8
20260509112008 51 200 1.0 1.0 0.00 0.20 0.20 99 1004.7
20260509111506 51 184 3.0 3.0 0.00 0.20 0.20 99 1004.9
20260509111003 51 193 0.0 0.0 0.00 0.20 0.20 99 1004.6
20260509110459 51 186 1.0 1.0 0.00 0.20 0.20 99 1004.6
20260509105956 51 195 1.0 1.0 0.00 0.20 0.20 99 1004.8
20260509105455 51 196 2.0 3.0 0.00 0.20 0.20 99 1004.7
20260509104952 51 188 1.0 2.0 0.00 0.20 0.20 99 1004.6
20260509104448 51 192 2.0 2.0 0.00 0.20 0.20 99 1004.5
20260509103946 51 196 0.0 0.0 0.00 0.20 0.20 99 1004.6
20260509103443 51 186 0.0 0.0 0.00 0.20 0.20 99 1004.6
20260509102941 51 188 0.0 1.0 0.00 0.20 0.20 99 1004.3
20260509102438 51 189 0.0 0.0 0.00 0.20 0.20 99 1004.3
20260509101934 51 202 1.0 1.0 0.00 0.20 0.20 99 1004.5
20260509101431 51 191 2.0 2.0 0.00 0.20 0.20 99 1004.5
20260509100928 51 187 2.0 2.0 0.00 0.20 0.20 99 1004.7
20260509100425 51 199 1.0 1.0 0.00 0.20 0.20 99 1004.5
20260509095922 51 154 3.0 3.0 0.00 0.20 0.20 99 1004.4
20260509095419 51 213 1.0 2.0 0.00 0.20 0.20 99 1004.7
20260509094916 51 221 3.0 5.0 0.00 0.20 0.20 99 1004.5
20260509094413 51 192 2.0 2.0 0.00 0.20 0.20 99 1004.6
20260509093911 51 183 2.0 2.0 0.00 0.20 0.20 99 1004.6
20260509093408 51 201 1.0 1.0 0.00 0.20 0.20 99 1004.9
20260509092906 51 190 0.0 1.0 0.00 0.20 0.20 99 1004.7
20260509092403 51 196 3.0 3.0 0.00 0.20 0.20 99 1004.7
20260509091902 51 201 3.0 5.0 0.00 0.20 0.20 99 1004.8
20260509091358 51 203 2.0 2.0 0.00 0.20 0.20 99 1004.7
20260509090855 51 195 0.0 0.0 0.00 0.20 0.20 99 1004.7
20260509090352 51 197 0.0 0.0 0.00 0.20 0.20 99 1005.0
20260509085850 51 190 2.0 2.0 0.00 0.20 0.20 99 1004.9
20260509085347 51 211 0.0 0.0 0.00 0.20 0.20 99 1005.1
20260509084843 51 211 2.0 2.0 0.00 0.20 0.20 99 1005.1
20260509084340 51 185 2.0 3.0 0.00 0.20 0.20 99 1005.0
20260509083838 51 192 2.0 2.0 0.00 0.20 0.20 99 1005.2
20260509083334 51 185 3.0 3.0 0.00 0.20 0.20 99 1005.2
20260509082831 51 200 1.0 1.0 0.00 0.20 0.20 99 1005.2
20260509082328 51 201 0.0 0.0 0.00 0.20 0.20 99 1005.1
20260509081826 51 209 2.0 2.0 0.00 0.20 0.20 99 1005.4
20260509081322 51 214 2.0 2.0 0.00 0.20 0.20 99 1005.4
20260509080820 51 233 3.0 3.0 0.00 0.20 0.20 99 1005.3
20260509080318 51 210 1.0 1.0 0.00 0.20 0.20 99 1005.4
20260509075816 51 195 3.0 3.0 0.00 0.20 0.20 99 1005.6
20260509075313 51 197 0.0 0.0 0.00 0.20 0.20 99 1005.4
20260509074810 51 189 2.0 2.0 0.00 0.20 0.20 99 1005.3
20260509074308 51 199 2.0 2.0 0.00 0.20 0.20 99 1005.4
20260509073803 51 195 1.0 1.0 0.00 0.20 0.20 99 1005.5
20260509073300 51 205 0.0 1.0 0.00 0.20 0.20 99 1005.4
20260509072757 51 203 1.0 1.0 0.00 0.20 0.20 99 1005.3
20260509072253 51 183 1.0 1.0 0.00 0.20 0.20 99 1005.3
20260509071750 51 203 2.0 2.0 0.00 0.20 0.20 99 1005.4
20260509071247 50 229 1.0 2.0 0.00 0.20 0.20 99 1005.2
20260509070744 50 198 1.0 1.0 0.00 0.20 0.20 99 1005.3
20260509070240 50 182 1.0 1.0 0.00 0.20 0.20 99 1005.5
20260509065737 50 188 0.0 1.0 0.00 0.20 0.20 99 1005.5
20260509065233 50 208 0.0 0.0 0.05 0.20 0.20 99 1005.7
20260509064730 50 215 2.0 2.0 0.05 0.20 0.20 99 1005.5
20260509064227 50 220 3.0 3.0 0.07 0.19 0.19 99 1005.6
20260509063725 50 203 1.0 1.0 0.07 0.19 0.19 99 1005.7
20260509063221 50 220 1.0 2.0 0.00 0.18 0.18 99 1005.7
20260509062718 50 203 1.0 1.0 0.05 0.18 0.18 99 1005.7
20260509062215 50 192 3.0 3.0 0.05 0.18 0.18 99 1005.8
20260509061712 50 194 3.0 3.0 0.00 0.17 0.17 99 1005.8
20260509061210 50 187 1.0 1.0 0.00 0.17 0.17 99 1005.9
20260509060707 50 189 2.0 2.0 0.00 0.17 0.17 99 1005.9
20260509060203 50 188 2.0 2.0 0.00 0.17 0.17 99 1006.1
20260509055659 50 186 1.0 1.0 0.00 0.17 0.17 99 1006.2
20260509055155 50 182 1.0 1.0 0.07 0.17 0.17 99 1006.1
20260509054652 50 193 2.0 2.0 0.12 0.17 0.17 99 1006.3
20260509054149 50 192 2.0 2.0 0.05 0.16 0.16 99 1006.4
20260509053648 50 207 2.0 2.0 0.00 0.15 0.15 99 1006.5
20260509053144 50 201 1.0 1.0 0.07 0.15 0.15 99 1006.4
20260509052642 50 200 1.0 2.0 0.31 0.15 0.15 99 1006.6
20260509052139 50 207 2.0 2.0 0.42 0.14 0.14 99 1006.4
20260509051637 50 208 4.0 6.0 0.19 0.10 0.10 99 1006.5
20260509051134 50 192 2.0 2.0 0.05 0.07 0.07 99 1006.6
20260509050631 50 215 3.0 3.0 0.05 0.07 0.07 99 1006.6
20260509050127 50 185 3.0 5.0 0.07 0.06 0.06 99 1006.4
20260509045625 50 196 3.0 6.0 0.07 0.06 0.06 99 1006.5
20260509045122 50 187 1.0 1.0 0.05 0.05 0.05 99 1006.6
20260509044619 50 175 5.0 6.0 0.12 0.05 0.05 99 1006.4
20260509044116 50 191 3.0 3.0 0.12 0.04 0.04 99 1006.6
20260509043613 50 181 5.0 7.0 0.12 0.03 0.03 99 1006.6
20260509043108 50 193 2.0 3.0 0.12 0.02 0.02 99 1006.4
20260509042605 50 205 1.0 1.0 0.05 0.01 0.01 99 1006.4
20260509042101 50 173 1.0 1.0 0.00 0.00 0.00 99 1006.8
20260509041558 50 176 1.0 1.0 0.00 0.00 0.00 99 1006.6
20260509041055 50 183 1.0 1.0 0.00 0.00 0.00 99 1007.0
20260509040554 50 193 3.0 3.0 0.00 0.00 0.00 99 1006.9
20260509040050 50 190 2.0 3.0 0.00 0.00 0.00 99 1007.0
20260509035547 50 176 2.0 2.0 0.00 0.37 0.37 99 1007.1
20260509035043 50 187 3.0 5.0 0.00 0.37 0.37 99 1007.1
20260509034542 50 191 2.0 2.0 0.07 0.37 0.37 99 1007.3
20260509034038 50 181 2.0 2.0 0.07 0.37 0.37 99 1007.2
20260509033536 50 196 1.0 1.0 0.00 0.36 0.36 99 1007.4
20260509033032 50 180 2.0 2.0 0.00 0.36 0.36 99 1007.4
20260509032530 50 192 5.0 6.0 0.07 0.36 0.36 99 1007.3
20260509032027 50 175 2.0 2.0 0.07 0.36 0.36 99 1007.5
20260509031524 50 193 2.0 2.0 0.00 0.35 0.35 99 1007.6
20260509031021 50 195 2.0 2.0 0.00 0.35 0.35 99 1007.8
20260509030519 50 177 3.0 3.0 0.00 0.35 0.35 99 1007.6
20260509030016 50 197 1.0 1.0 0.05 0.35 0.35 99 1007.6
20260509025512 50 216 1.0 3.0 0.05 0.35 0.35 99 1008.0
20260509025008 50 210 3.0 3.0 0.00 0.34 0.34 99 1007.8
20260509024504 50 214 3.0 3.0 0.00 0.34 0.34 99 1007.8
20260509024001 50 201 2.0 2.0 0.00 0.34 0.34 99 1007.8
20260509023458 50 199 2.0 3.0 0.07 0.34 0.34 99 1007.8
20260509022955 50 187 2.0 2.0 0.07 0.34 0.34 99 1007.8
20260509022451 50 185 1.0 1.0 0.00 0.33 0.33 99 1007.8
20260509021949 50 191 2.0 2.0 0.00 0.33 0.33 99 1007.6
20260509021446 50 192 1.0 2.0 0.00 0.33 0.33 99 1007.6
20260509020943 49 197 1.0 2.0 0.00 0.33 0.33 99 1007.5
20260509020441 49 182 1.0 2.0 0.00 0.33 0.33 99 1007.6
20260509015938 49 192 1.0 1.0 0.00 0.33 0.33 99 1007.9
20260509015437 49 184 1.0 2.0 0.00 0.33 0.33 99 1007.7
20260509014933 49 191 1.0 1.0 0.00 0.33 0.33 99 1007.7
20260509014430 49 184 2.0 2.0 0.00 0.33 0.33 99 1007.8
20260509013926 49 174 1.0 2.0 0.00 0.33 0.33 99 1007.6
20260509013423 49 181 2.0 2.0 0.00 0.33 0.33 99 1007.6
20260509012919 49 192 2.0 2.0 0.00 0.33 0.33 99 1007.6
20260509012416 49 192 1.0 1.0 0.00 0.33 0.33 99 1007.8
20260509011913 49 182 3.0 3.0 0.00 0.33 0.33 99 1007.5
20260509011410 49 179 1.0 2.0 0.00 0.33 0.33 99 1007.6
20260509010908 49 205 2.0 3.0 0.05 0.33 0.33 99 1007.7
20260509010405 49 175 3.0 3.0 0.05 0.33 0.33 99 1007.7
20260509005902 49 199 0.0 0.0 0.00 0.32 0.32 99 1007.6
20260509005400 49 179 2.0 2.0 0.00 0.32 0.32 99 1007.8
20260509004900 49 190 1.0 1.0 0.07 0.32 0.32 99 1007.7
20260509004357 49 180 5.0 6.0 0.07 0.32 0.32 99 1007.6
20260509003854 49 178 2.0 2.0 0.00 0.31 0.31 99 1007.5
20260509003352 49 197 2.0 2.0 0.05 0.31 0.31 99 1007.5
20260509002849 49 179 1.0 2.0 0.05 0.31 0.31 99 1007.5
20260509002347 49 183 3.0 5.0 0.07 0.30 0.30 99 1007.7
20260509001844 49 200 3.0 3.0 0.07 0.30 0.30 99 1007.6
20260509001340 49 176 2.0 2.0 0.05 0.29 0.29 99 1007.6
20260509000837 49 186 2.0 2.0 0.05 0.29 0.29 99 1007.6
20260509000335 49 187 1.0 2.0 0.07 0.28 0.28 99 1007.8
20260508235831 49 205 2.0 2.0 0.07 0.28 0.28 99 1008.0
20260508235328 49 199 0.0 0.0 0.05 0.27 0.27 99 1007.9
20260508234825 49 208 1.0 2.0 0.05 0.27 0.27 99 1007.7
20260508234321 49 197 0.0 0.0 0.00 0.26 0.26 99 1007.8
20260508233820 49 201 0.0 0.0 0.07 0.26 0.26 99 1007.6
20260508233319 49 195 0.0 0.0 0.14 0.26 0.26 99 1007.6
20260508232815 49 188 0.0 1.0 0.07 0.25 0.25 99 1007.6
20260508232312 49 190 0.0 0.0 0.05 0.24 0.24 99 1007.5
20260508231811 49 200 0.0 0.0 0.12 0.24 0.24 99 1007.6
20260508231306 49 208 0.0 0.0 0.07 0.23 0.23 99 1007.5
20260508230803 49 195 0.0 0.0 0.05 0.22 0.22 99 1007.6
20260508230300 49 174 0.0 0.0 0.05 0.22 0.22 99 1007.3
20260508225757 49 173 0.0 0.0 0.00 0.21 0.21 99 1007.5
20260508225253 49 173 0.0 0.0 0.00 0.21 0.21 99 1007.6
20260508224752 49 163 0.0 0.0 0.12 0.21 0.21 99 1007.7
20260508224249 49 163 0.0 0.0 0.12 0.21 0.21 99 1007.4
20260508223747 49 175 0.0 0.0 0.12 0.19 0.19 99 1007.5
20260508223243 49 175 2.0 2.0 0.19 0.19 0.19 99 1007.6
20260508222741 49 189 2.0 2.0 0.12 0.17 0.17 99 1007.7
20260508222238 49 230 0.0 0.0 0.17 0.16 0.16 99 1007.9
20260508221734 49 273 0.0 0.0 0.12 0.15 0.15 98 1007.8
20260508221230 49 255 0.0 0.0 0.07 0.13 0.13 98 1007.5
20260508220726 49 245 1.0 1.0 0.07 0.13 0.13 98 1007.6
20260508220223 49 181 0.0 0.0 0.07 0.12 0.12 98 1007.5
20260508215720 50 182 0.0 0.0 0.19 0.12 0.12 98 1007.6
20260508215216 50 181 0.0 0.0 0.17 0.11 0.11 98 1007.4
20260508214714 50 181 0.0 0.0 0.05 0.09 0.09 98 1007.5
20260508214211 50 181 0.0 0.0 0.00 0.08 0.08 97 1007.5
20260508213707 50 180 0.0 0.0 0.00 0.08 0.08 97 1007.0
20260508213204 49 180 0.0 0.0 0.00 0.08 0.08 97 1007.1
20260508212700 50 183 0.0 0.0 0.07 0.08 0.08 97 1007.2
20260508212157 50 184 0.0 0.0 0.07 0.08 0.08 97 1007.2
20260508211652 50 183 0.0 0.0 0.05 0.07 0.07 97 1007.4
20260508211148 50 185 2.0 2.0 0.17 0.07 0.07 96 1007.4
20260508210645 50 200 0.0 0.0 0.19 0.06 0.06 96 1007.9
20260508210143 50 231 3.0 5.0 0.07 0.04 0.04 96 1007.9
20260508205640 50 219 0.0 0.0 0.00 0.03 0.03 95 1008.0
20260508205136 50 227 1.0 2.0 0.05 0.03 0.03 95 1007.8
20260508204632 50 214 0.0 1.0 0.05 0.03 0.03 94 1008.0
20260508204128 50 246 3.0 3.0 0.00 0.02 0.02 94 1008.0
20260508203625 50 210 5.0 6.0 0.00 0.02 0.02 93 1008.1
20260508203121 50 221 2.0 2.0 0.07 0.02 0.02 93 1008.0
20260508202617 50 232 1.0 2.0 0.07 0.02 0.02 93 1008.1
20260508202115 50 276 4.0 5.0 0.00 0.01 0.01 92 1008.5
20260508201611 50 252 3.0 3.0 0.00 0.01 0.01 92 1008.6
20260508201108 51 233 3.0 5.0 0.00 0.01 0.01 91 1008.6
20260508200605 51 220 5.0 6.0 0.05 0.01 0.01 90 1008.5
20260508200101 52 259 3.0 5.0 0.05 0.01 0.01 89 1008.7
20260508195557 53 211 4.0 7.0 0.00 0.00 0.00 85 1008.8
20260508195054 53 219 5.0 7.0 0.00 0.00 0.00 84 1008.9
20260508194550 54 209 3.0 3.0 0.00 0.00 0.00 83 1008.7
20260508194048 54 240 3.0 5.0 0.00 0.00 0.00 81 1008.8
20260508193544 54 196 4.0 5.0 0.00 0.00 0.00 80 1008.7
20260508193041 54 267 5.0 6.0 0.00 0.00 0.00 78 1008.7
20260508192538 55 217 5.0 6.0 0.00 0.00 0.00 77 1008.8
20260508192035 55 229 2.0 2.0 0.00 0.00 0.00 78 1008.7
20260508191531 55 248 2.0 2.0 0.00 0.00 0.00 78 1008.5
20260508191028 55 226 4.0 5.0 0.00 0.00 0.00 78 1008.5
20260508190526 55 254 2.0 3.0 0.00 0.00 0.00 77 1008.6
20260508190022 56 221 5.0 6.0 0.00 0.00 0.00 75 1008.6
20260508185519 56 230 3.0 3.0 0.00 0.00 0.00 76 1008.8
20260508185017 56 242 4.0 5.0 0.00 0.00 0.00 77 1008.7
20260508184514 55 261 3.0 3.0 0.00 0.00 0.00 79 1008.8
20260508184011 55 250 7.0 9.0 0.00 0.00 0.00 77 1008.9
20260508183507 54 206 4.0 5.0 0.00 0.00 0.00 79 1009.2
20260508183003 54 232 3.0 3.0 0.00 0.00 0.00 78 1009.1
20260508182500 54 214 6.0 8.0 0.00 0.00 0.00 78 1008.9
20260508181955 54 188 5.0 6.0 0.00 0.00 0.00 78 1009.3
20260508181452 55 189 2.0 3.0 0.00 0.00 0.00 77 1009.0
20260508180949 54 232 2.0 2.0 0.00 0.00 0.00 80 1009.2
20260508180446 53 215 4.0 5.0 0.00 0.00 0.00 82 1009.3
20260508175942 53 232 0.0 0.0 0.00 0.00 0.00 83 1009.4
20260508175438 53 239 7.0 9.0 0.00 0.00 0.00 82 1009.4
20260508174937 53 238 5.0 7.0 0.00 0.00 0.00 83 1009.4
20260508174434 53 216 3.0 3.0 0.00 0.00 0.00 83 1009.6
20260508173930 53 219 3.0 3.0 0.00 0.00 0.00 82 1009.5
20260508173428 53 224 2.0 2.0 0.00 0.00 0.00 82 1009.7
20260508172923 53 210 4.0 5.0 0.00 0.00 0.00 80 1009.7
20260508172421 53 233 3.0 5.0 0.00 0.00 0.00 80 1009.6
20260508171917 53 249 3.0 3.0 0.00 0.00 0.00 79 1009.8
20260508171414 54 224 2.0 2.0 0.00 0.00 0.00 79 1009.8
20260508170910 54 230 5.0 6.0 0.00 0.00 0.00 76 1009.9
20260508170408 54 263 3.0 5.0 0.00 0.00 0.00 76 1009.9
20260508165904 54 230 5.0 7.0 0.00 0.00 0.00 76 1009.9
20260508165402 55 248 7.0 9.0 0.00 0.00 0.00 74 1009.8
20260508164858 55 226 3.0 5.0 0.00 0.00 0.00 74 1010.0
20260508164355 55 255 5.0 7.0 0.00 0.00 0.00 72 1009.7
20260508163852 55 221 2.0 2.0 0.00 0.00 0.00 73 1009.8
20260508163350 55 296 3.0 5.0 0.00 0.00 0.00 73 1009.9
20260508162845 55 273 1.0 1.0 0.00 0.00 0.00 73 1009.6
20260508162343 56 257 4.0 6.0 0.00 0.00 0.00 71 1009.7
20260508161840 56 228 3.0 3.0 0.00 0.00 0.00 70 1009.9
20260508161337 56 318 3.0 5.0 0.00 0.00 0.00 70 1009.9
20260508160834 56 297 6.0 7.0 0.00 0.00 0.00 70 1009.9